Greenville, TX

4:31 AM CDT on April 25, 2017 (GMT -0500)
Majors

Weather History for KGVT - January, 2013

Change the Weather History Date:

Wednesday, January 30, 2013

  Actual Average Record
Temperature  
Mean Temperature 46 °F -  
Max Temperature 55 °F 53 °F 77 °F (2002)
Min Temperature 37 °F 38 °F 23 °F (2008)
Degree Days  
Heating Degree Days 19    
Moisture  
Dew Point 29 °F    
Average Humidity 52    
Maximum Humidity 76    
Minimum Humidity 33    
Precipitation  
Precipitation 0.01 in - - ()
Sea Level Pressure  
Sea Level Pressure 29.95 in    
Wind  
Wind Speed 12 mph (West)    
Max Wind Speed 25 mph    
Max Gust Speed 40 mph    
Visibility 10 miles    
Events Rain    
Averages and records for this station are not official NWS values.
T = Trace of Precipitation, MM = Missing Value Source: NWS Daily Summary

Daily Weather History Graph

Daily Weather History Graph

Search for Another Location

Airport or City:

Trip Planner

Search our weather history database for the weather conditions in past years. The results will help you decide how hot, cold, wet, or windy it might be!

Date:

Astronomy

Jan. 30, 2013 Rise Set
Actual Time 7:20 AM CST 5:54 PM CST
Civil Twilight 6:54 AM CST 6:20 PM CST
Nautical Twilight 6:25 AM CST 6:50 PM CST
Astronomical Twilight 5:55 AM CST 7:19 PM CST
Moon 9:38 PM CST (1/30) 9:03 AM CST (1/30)
Length of Visible Light 11h 26m
Length of Day
10h 34m
Waning Gibbous, 87% of the Moon is Illuminated
Jan 30
Waning Gibbous
Feb 3
Last Quarter
Feb 10
New
Feb 17
First Quarter
Feb 25
Full

Hourly Weather History & Observations

Time (CST) Temp. Windchill Dew Point Humidity Pressure Visibility Wind Dir Wind Speed Gust Speed Precip Events Conditions
12:15 AM 55.4 °F - 35.6 °F 47% 29.69 in 10.0 mi WSW 10.4 mph 18.4 mph N/A   Scattered Clouds
12:35 AM 53.6 °F - 33.8 °F 47% 29.69 in 10.0 mi West 12.7 mph 18.4 mph N/A   Clear
12:55 AM 53.6 °F - 32.0 °F 44% 29.69 in 10.0 mi West 10.4 mph 16.1 mph N/A   Clear
1:15 AM 53.6 °F - 30.2 °F 41% 29.69 in 10.0 mi West 10.4 mph 17.3 mph N/A   Clear
1:35 AM 51.8 °F - 32.0 °F 47% 29.69 in 10.0 mi West 8.1 mph - N/A   Clear
1:55 AM 51.8 °F - 30.2 °F 44% 29.69 in 10.0 mi WSW 9.2 mph - N/A   Clear
2:15 AM 51.8 °F - 30.2 °F 44% 29.70 in 10.0 mi WSW 10.4 mph - N/A   Clear
2:35 AM 51.8 °F - 30.2 °F 44% 29.70 in 10.0 mi WSW 8.1 mph - N/A   Clear
2:55 AM 50.0 °F - 30.2 °F 47% 29.70 in 10.0 mi WSW 8.1 mph - N/A   Clear
3:15 AM 50.0 °F - 30.2 °F 47% 29.71 in 10.0 mi WSW 6.9 mph - N/A   Clear
3:35 AM 50.0 °F - 28.4 °F 43% 29.70 in 10.0 mi West 12.7 mph - N/A   Clear
3:55 AM 50.0 °F - 30.2 °F 47% 29.71 in 10.0 mi West 10.4 mph - N/A   Clear
4:15 AM 48.2 °F - 30.2 °F 50% 29.71 in 10.0 mi West 12.7 mph - N/A   Clear
4:35 AM 46.4 °F 40.1 °F 32.0 °F 57% 29.74 in 10.0 mi West 15.0 mph - N/A   Clear
4:55 AM 46.4 °F 41.5 °F 33.8 °F 62% 29.74 in 10.0 mi West 10.4 mph - N/A   Clear
5:15 AM 46.4 °F 41.1 °F 35.6 °F 66% 29.76 in 10.0 mi West 11.5 mph - N/A   Scattered Clouds
5:55 AM 44.6 °F 36.9 °F 33.8 °F 66% 29.78 in 10.0 mi NW 18.4 mph 25.3 mph N/A   Mostly Cloudy
6:15 AM 44.6 °F 40.2 °F 33.8 °F 66% 29.80 in 10.0 mi WNW 8.1 mph 25.3 mph N/A   Mostly Cloudy
6:35 AM 44.6 °F 39.2 °F 33.8 °F 66% 29.82 in 10.0 mi WNW 10.4 mph - N/A   Overcast
6:55 AM 44.6 °F 38.8 °F 33.8 °F 66% 29.83 in 10.0 mi WNW 11.5 mph 16.1 mph N/A   Overcast
7:15 AM 44.6 °F 40.2 °F 33.8 °F 66% 29.84 in 10.0 mi NW 8.1 mph - N/A   Overcast
7:35 AM 44.6 °F 37.4 °F 32.0 °F 61% 29.83 in 10.0 mi WNW 16.1 mph 21.9 mph N/A   Overcast
7:55 AM 41.0 °F 32.5 °F 32.0 °F 70% 29.89 in 7.0 mi WNW 17.3 mph 40.3 mph 0.01 in Rain Light Rain
8:15 AM 41.0 °F 33.5 °F 33.8 °F 76% 29.90 in 10.0 mi WNW 13.8 mph 20.7 mph N/A   Overcast
8:35 AM 41.0 °F 35.2 °F 33.8 °F 76% 29.92 in 10.0 mi WNW 9.2 mph - N/A   Overcast
8:55 AM 42.8 °F 33.5 °F 32.0 °F 66% 29.93 in 10.0 mi WNW 23.0 mph 31.1 mph N/A   Overcast
9:15 AM 42.8 °F 35.1 °F 28.4 °F 57% 29.94 in 10.0 mi NW 16.1 mph 34.5 mph N/A   Overcast
9:35 AM 42.8 °F 34.3 °F 28.4 °F 57% 29.96 in 10.0 mi NW 19.6 mph 28.8 mph N/A   Overcast
9:55 AM 42.8 °F 34.3 °F 30.2 °F 61% 29.97 in 10.0 mi WNW 19.6 mph 27.6 mph N/A   Overcast
10:15 AM 42.8 °F 33.5 °F 30.2 °F 61% 29.99 in 10.0 mi WNW 23.0 mph 27.6 mph N/A   Overcast
10:35 AM 44.6 °F 37.2 °F 30.2 °F 57% 30.00 in 10.0 mi NW 17.3 mph 29.9 mph N/A   Mostly Cloudy
10:55 AM 44.6 °F 36.4 °F 28.4 °F 53% 30.01 in 10.0 mi NW 20.7 mph 29.9 mph N/A   Mostly Cloudy
11:15 AM 44.6 °F 35.7 °F 30.2 °F 57% 30.02 in 10.0 mi WNW 24.2 mph 28.8 mph N/A   Overcast
11:35 AM 44.6 °F 37.4 °F 30.2 °F 57% 30.02 in 10.0 mi NW 16.1 mph 27.6 mph N/A   Overcast
11:55 AM 44.6 °F 36.4 °F 30.2 °F 57% 30.03 in 10.0 mi WNW 20.7 mph 28.8 mph N/A   Overcast
12:15 PM 46.4 °F 38.7 °F 30.2 °F 53% 30.03 in 10.0 mi NW 20.7 mph 26.5 mph N/A   Overcast
12:35 PM 46.4 °F 37.9 °F 28.4 °F 50% 30.03 in 10.0 mi NW 25.3 mph 29.9 mph N/A   Mostly Cloudy
12:55 PM 46.4 °F 39.0 °F 28.4 °F 50% 30.03 in 10.0 mi WNW 19.6 mph 27.6 mph N/A   Mostly Cloudy
1:15 PM 48.2 °F - 28.4 °F 46% 30.02 in 10.0 mi NW 18.4 mph 26.5 mph N/A   Mostly Cloudy
1:35 PM 50.0 °F - 26.6 °F 40% 30.02 in 10.0 mi NW 17.3 mph 27.6 mph N/A   Mostly Cloudy
1:55 PM 50.0 °F - 26.6 °F 40% 30.03 in 10.0 mi WNW 17.3 mph 25.3 mph N/A   Scattered Clouds
2:15 PM 48.2 °F - 28.4 °F 46% 30.03 in 10.0 mi West 15.0 mph 19.6 mph N/A   Scattered Clouds
2:35 PM 50.0 °F - 26.6 °F 40% 30.02 in 10.0 mi WNW 18.4 mph 25.3 mph N/A   Scattered Clouds
2:55 PM 50.0 °F - 26.6 °F 40% 30.02 in 10.0 mi NW 13.8 mph 21.9 mph N/A   Scattered Clouds
3:15 PM 51.8 °F - 23.0 °F 33% 30.03 in 10.0 mi WNW 19.6 mph 24.2 mph N/A   Scattered Clouds
3:35 PM 51.8 °F - 23.0 °F 33% 30.03 in 10.0 mi WNW 17.3 mph 24.2 mph N/A   Scattered Clouds
3:55 PM 51.8 °F - 23.0 °F 33% 30.04 in 10.0 mi West 17.3 mph 27.6 mph N/A   Scattered Clouds
4:15 PM 51.8 °F - 23.0 °F 33% 30.04 in 10.0 mi West 15.0 mph 21.9 mph N/A   Scattered Clouds
4:35 PM 51.8 °F - 23.0 °F 33% 30.05 in 10.0 mi WNW 16.1 mph 19.6 mph N/A   Scattered Clouds
4:55 PM 50.0 °F - 23.0 °F 35% 30.06 in 10.0 mi Calm Calm 21.9 mph N/A   Scattered Clouds
5:55 PM 46.4 °F 41.5 °F 23.0 °F 40% 30.09 in 10.0 mi West 10.4 mph - N/A   Clear
6:35 PM 44.6 °F 41.4 °F 26.6 °F 49% 30.10 in 10.0 mi West 5.8 mph - N/A   Clear
6:55 PM 44.6 °F 40.2 °F 24.8 °F 46% 30.11 in 10.0 mi West 8.1 mph - N/A   Clear
7:15 PM 44.6 °F 40.7 °F 24.8 °F 46% 30.13 in 10.0 mi West 6.9 mph - N/A   Clear
7:35 PM 44.6 °F 41.4 °F 24.8 °F 46% 30.14 in 10.0 mi WSW 5.8 mph - N/A   Clear
7:55 PM 42.8 °F 40.1 °F 26.6 °F 53% 30.13 in 10.0 mi West 4.6 mph - N/A   Clear
8:15 PM 42.8 °F 41.1 °F 24.8 °F 49% 30.14 in 10.0 mi West 3.5 mph - N/A   Clear
8:35 PM 42.8 °F - 26.6 °F 53% 30.14 in 10.0 mi Calm Calm - N/A   Clear
8:55 PM 41.0 °F 39.0 °F 26.6 °F 57% 30.14 in 10.0 mi SW 3.5 mph - N/A   Clear
9:15 PM 39.2 °F 37.0 °F 28.4 °F 65% 30.14 in 10.0 mi SW 3.5 mph - N/A   Clear
9:35 PM 41.0 °F 38.0 °F 26.6 °F 57% 30.14 in 10.0 mi SW 4.6 mph - N/A   Clear
9:55 PM 41.0 °F 38.0 °F 24.8 °F 53% 30.14 in 10.0 mi SW 4.6 mph - N/A   Clear
10:15 PM 41.0 °F 38.0 °F 24.8 °F 53% 30.14 in 10.0 mi SW 4.6 mph - N/A   Clear
10:35 PM 41.0 °F 38.0 °F 24.8 °F 53% 30.14 in 10.0 mi SW 4.6 mph - N/A   Clear
10:55 PM 37.4 °F 33.8 °F 26.6 °F 65% 30.14 in 10.0 mi SW 4.6 mph - N/A   Clear
11:15 PM 39.2 °F 34.2 °F 26.6 °F 61% 30.14 in 10.0 mi SW 6.9 mph - N/A   Clear
11:35 PM 39.2 °F 35.0 °F 24.8 °F 56% 30.14 in 10.0 mi SW 5.8 mph - N/A   Clear
11:55 PM 39.2 °F 35.9 °F 24.8 °F 56% 30.14 in 10.0 mi SW 4.6 mph - N/A   Clear